Weather History for KPSC - July, 2013

Change the Weather History Date:

Monday, July 22, 2013

  Actual Average Record
Temperature  
Mean Temperature 84 °F 75 °F  
Max Temperature 100 °F 93 °F 109 °F (2006)
Min Temperature 68 °F 57 °F 47 °F (2011)
Degree Days  
Heating Degree Days 0 0  
Month to date heating degree days 0 1  
Since 1 June heating degree days 19 33  
Since 1 July heating degree days 0 1  
Cooling Degree Days 19 10  
Month to date cooling degree days 273 177  
Year to date cooling degree days 443 319  
Since 1 June cooling degree days 397 286  
Growing Degree Days 34 (Base 50)    
Moisture  
Dew Point 48 °F    
Average Humidity 36    
Maximum Humidity 61    
Minimum Humidity 10    
Precipitation  
Precipitation 0.00 in 0.00 in 0.09 in (1992)
Month to date precipitation T 0.24  
Year to date precipitation 2.94 5.17  
Snow  
Snow 0.00 in - - ()
Snow Depth 0.00 in    
Sea Level Pressure  
Sea Level Pressure 29.81 in    
Wind  
Wind Speed 5 mph (SSW)    
Max Wind Speed 15 mph    
Max Gust Speed 21 mph    
Visibility 10 miles    
Events      
T = Trace of Precipitation, MM = Missing Value Source: NWS Daily Summary

Daily Weather History Graph

Daily Weather History Graph

Search for Another Location

Airport or City:

Trip Planner

Search our weather history database for the weather conditions in past years. The results will help you decide how hot, cold, wet, or windy it might be!

Date:

Astronomy

Jul. 22, 2013 Rise Set
Actual Time 5:27 AM PDT 8:38 PM PDT
Civil Twilight 4:50 AM PDT 9:14 PM PDT
Nautical Twilight 4:03 AM PDT 10:01 PM PDT
Astronomical Twilight 3:05 AM PDT 10:58 PM PDT
Moon 8:21 PM PDT (7/22) 5:33 AM PDT (7/22)
Length of Visible Light 16h 23m
Length of Day
15h 11m
Full, 100% of the Moon is Illuminated
Jul 22
Full
Jul 29
Last Quarter
Aug 6
New
Aug 14
First Quarter
Aug 20
Full

Hourly Weather History & Observations

Time (PDT) Temp. Dew Point Humidity Pressure Visibility Wind Dir Wind Speed Gust Speed Precip Events Conditions
12:53 AM 73.0 °F 50.0 °F 44% 29.74 in 10.0 mi Calm Calm - N/A   Clear
1:53 AM 71.1 °F 55.0 °F 57% 29.75 in 10.0 mi SW 4.6 mph - N/A   Clear
2:53 AM 69.1 °F 55.9 °F 63% 29.76 in 10.0 mi East 5.8 mph - N/A   Clear
3:53 AM 70.0 °F 55.0 °F 59% 29.77 in 10.0 mi SSE 4.6 mph - N/A   Clear
4:53 AM 70.0 °F 54.0 °F 57% 29.79 in 10.0 mi South 5.8 mph - N/A   Clear
5:53 AM 70.0 °F 53.1 °F 55% 29.80 in 10.0 mi SSW 6.9 mph - N/A   Clear
6:53 AM 73.0 °F 53.1 °F 49% 29.82 in 10.0 mi SSW 6.9 mph - N/A   Clear
7:53 AM 75.9 °F 53.1 °F 45% 29.84 in 10.0 mi South 8.1 mph - N/A   Clear
8:53 AM 79.0 °F 52.0 °F 39% 29.85 in 10.0 mi SSW 8.1 mph - N/A   Clear
9:53 AM 82.9 °F 52.0 °F 34% 29.86 in 10.0 mi South 8.1 mph - N/A   Clear
10:53 AM 86.0 °F 51.1 °F 30% 29.85 in 10.0 mi SW 6.9 mph - N/A   Clear
11:53 AM 89.1 °F 50.0 °F 26% 29.85 in 10.0 mi Variable 3.5 mph - N/A   Clear
12:53 PM 91.0 °F 48.9 °F 23% 29.84 in 10.0 mi Calm Calm - N/A   Clear
1:53 PM 93.9 °F 46.9 °F 20% 29.83 in 10.0 mi SSW 8.1 mph - N/A   Clear
2:53 PM 97.0 °F 44.1 °F 16% 29.81 in 10.0 mi West 10.4 mph - N/A   Clear
3:53 PM 100.0 °F 39.0 °F 12% 29.80 in 10.0 mi SW 8.1 mph - N/A   Clear
4:53 PM 100.0 °F 39.0 °F 12% 29.79 in 10.0 mi SSW 9.2 mph - N/A   Clear
5:53 PM 100.0 °F 34.0 °F 10% 29.78 in 10.0 mi Calm Calm - N/A   Clear
6:53 PM 97.0 °F 44.1 °F 16% 29.77 in 10.0 mi East 11.5 mph - N/A   Clear
7:53 PM 93.9 °F 46.0 °F 19% 29.77 in 10.0 mi ESE 8.1 mph - N/A   Clear
8:53 PM 89.1 °F 48.0 °F 24% 29.78 in 10.0 mi SE 5.8 mph - N/A   Clear
9:53 PM 86.0 °F 45.0 °F 24% 29.81 in 10.0 mi WNW 13.8 mph - N/A   Clear
10:08 PM 82.4 °F 46.4 °F 28% 29.82 in 10.0 mi WNW 9.2 mph - N/A   Clear
10:53 PM 75.0 °F 51.1 °F 43% 29.82 in 10.0 mi NNW 3.5 mph - N/A   Clear
11:53 PM 78.1 °F 45.0 °F 31% 29.84 in 10.0 mi Variable 4.6 mph - N/A   Clear